Погода в Привольном

Россия / Ставропольский край     45°55′13″N   41°18′23″E
темп.,
°C
ветер,
м/с
пор.,
м/с
влажн.,
%
обл.,
%
осадки,
мм/ч
давл.,
гПа
погр.,
м
19 января, вт
вт1900:00−10з2395100 0.0 101922
03:00−10з2395100 0.0 102033
06:00−10зюз2294100 0.0 102021
09:00−9ююз0191100 0.0 102021
12:00−5юз489198 0.0 1021462
15:00−5з488399 0.1 1019990
18:00−11з239241 0.0 102221
21:00−12зюз239551 0.0 102321
20 января, ср
ср2000:00−13сз239496 0.0 102329
03:00−15зсз229279 0.0 102420
06:00−16з129531 0.0 102520
09:00−13зсз119465 0.0 102621
12:00−9ссз1189100 0.0 1027252
15:00−8сз1287100 0.1 1026409
18:00−13ссв2295100 0.0 102921
21:00−15св129595 0.1 103020
21 января, чт
чт2100:00−17всв119849 0.0 103020
03:00−17св1110041 0.0 103120
06:00−18в1110034 0.0 103220
09:00−15юв129519 0.0 103320
12:00−9юв11890 0.0 1033187
15:00−7вюв22890 0.0 1032180
18:00−9вюв338930 0.0 103229
21:00−7ююв348865 0.0 103259
22 января, пт
пт2200:00−4ю358595 0.0 1032126
03:00−4ююз458197 0.0 103198
06:00−6ююз34793 0.0 103040
09:00−4ююз34782 0.0 103180
12:000ю25920 0.0 1030167
15:00+1ююз22900 0.0 102946
18:00−2ююв12780 0.0 102921
21:00−3юв22770 0.0 102921
23 января, сб
сб2300:00−4юв22700 0.0 102821
03:00−4ююв22660 0.0 102721
06:00−5ююв22660 0.0 102721
09:00−4юв226913 0.0 102721
12:000юв23920 0.0 102696
15:00+1вюв23860 0.0 102545
18:00−2вюв347734 0.0 102424
21:00−3вюв237657 0.0 102421